Theta_e
330 335 337 333 338 338 340 337 335 334 334 332 336 336 339 341 340 349 340 341 339 339 339 336 333 335 332 334 329 329 330 332 332 332 332 332 332 332 331 327 327 334 333 330 329 329 328 326 324
335 332 331 337 340 341 339 335 335 333 334 333 335 336 338 343 340 340 341 341 340 339 338 337 330 331 334 333 331 330 332 333 333 332 330 328 327 329 330 330 328 329 329 331 328 329 327 324 322
333 329 336 339 340 341 338 334 335 333 333 333 335 334 334 340 339 340 341 340 340 339 338 337 329 328 330 334 333 332 333 333 333 332 331 330 327 328 327 330 329 327 328 329 332 327 326 324 322
329 330 334 339 341 338 335 334 333 332 330 330 329 332 333 337 338 340 341 340 339 339 338 334 330 328 326 332 333 334 334 334 332 328 330 328 328 325 326 327 326 326 324 327 331 328 327 326 324
328 334 337 339 340 336 333 333 331 332 329 329 327 329 335 338 339 340 340 339 339 338 338 336 330 328 327 326 333 334 336 334 329 326 328 328 325 323 320 326 326 325 324 321 328 327 326 326 326
334 334 336 339 339 334 333 332 332 331 331 332 329 328 333 337 339 340 340 339 339 339 338 337 333 330 326 325 326 333 335 333 329 327 329 327 327 325 322 321 321 322 322 321 319 322 325 326 325
336 335 335 336 338 335 333 331 332 333 333 330 324 327 334 336 339 340 339 339 339 339 339 339 337 333 331 325 325 327 329 331 331 326 331 331 328 328 326 325 324 324 324 322 321 318 315 314 316
333 335 335 335 338 337 331 331 332 332 332 326 326 326 333 334 338 340 339 339 339 339 339 339 338 337 336 332 325 325 329 334 332 327 329 330 330 328 327 327 326 325 326 326 325 323 322 321 320
328 335 336 335 336 335 331 332 332 331 331 329 329 328 330 335 338 339 339 339 339 339 339 338 338 338 337 336 331 324 324 327 327 326 325 329 331 331 331 329 329 329 326 325 325 325 325 324 323
331 336 334 333 333 334 331 332 332 332 331 332 334 332 333 336 338 339 339 338 338 338 338 338 338 337 337 336 335 332 331 328 329 329 329 328 331 332 331 331 330 327 327 327 326 325 326 325 326
328 335 330 331 332 333 331 332 331 332 332 331 332 331 336 337 337 338 338 337 338 338 338 337 337 337 337 336 336 335 333 333 332 331 330 330 330 330 330 329 330 328 328 328 328 328 328 328 329
329 326 327 326 326 332 332 332 332 332 331 331 329 330 335 337 337 337 337 336 336 336 336 337 337 336 336 336 335 335 334 333 333 332 332 331 331 331 331 331 331 330 330 330 330 329 329 329 329
329 327 325 324 325 330 331 332 332 333 329 329 331 330 332 334 334 335 334 334 335 336 336 337 337 337 336 336 336 335 335 334 334 333 333 332 332 332 332 331 331 331 330 330 330 330 329 329 329
325 326 326 325 326 327 331 331 330 332 328 331 333 332 331 331 332 333 334 334 335 335 335 336 336 337 336 336 336 336 335 335 334 334 334 333 333 333 332 332 332 331 331 330 330 330 329 329 329
325 327 327 327 326 327 329 330 331 330 329 331 332 333 331 331 331 332 333 333 333 334 335 335 336 336 336 336 336 336 336 335 335 335 334 334 334 333 333 332 332 332 332 331 330 330 330 330 330
327 326 330 327 326 325 327 336 331 326 329 331 331 332 333 332 331 331 331 331 332 333 334 334 335 335 336 336 336 337 336 336 336 335 335 335 334 334 333 333 333 333 333 332 331 331 330 330 329
328 329 328 326 325 326 328 335 327 324 326 329 331 331 332 332 332 331 331 332 332 332 332 332 333 334 334 335 335 336 336 336 336 335 335 335 334 334 333 333 333 333 333 332 331 330 330 330 329
332 330 328 327 323 325 327 329 324 323 323 326 328 327 327 327 329 329 329 329 329 330 331 331 331 332 333 333 334 334 335 335 335 335 335 334 334 334 333 333 332 332 332 331 330 329 329 330 330
328 327 329 326 321 323 324 325 325 325 324 324 324 324 323 323 323 323 323 323 322 322 322 322 323 324 327 328 330 331 333 333 333 334 334 333 330 327 327 327 326 326 326 327 327 327 327 330 331
323 325 325 324 321 322 324 324 322 321 321 321 322 322 321 321 321 320 320 320 320 320 320 320 320 319 320 322 324 325 326 326 326 324 323 322 321 322 323 323 323 323 323 323 324 325 326 329 330
324 324 323 322 321 321 321 321 321 320 319 319 320 320 320 320 320 319 318 318 317 317 318 319 319 318 319 320 321 320 319 319 319 320 320 321 321 321 320 320 322 322 321 322 323 324 327 329 328
325 323 323 323 323 325 321 324 322 320 318 316 316 317 317 317 314 313 313 314 314 314 314 316 317 317 317 317 316 317 319 320 320 321 321 319 317 316 317 318 318 320 320 322 324 324 326 327 327
323 322 324 324 324 323 323 324 322 321 320 317 317 314 313 314 314 313 312 312 312 312 312 313 315 314 313 312 312 314 315 316 317 318 319 318 318 316 315 316 317 318 319 320 322 324 325 325 326
319 321 321 321 322 331 324 321 321 319 315 313 313 313 314 313 313 313 311 311 311 311 311 312 312 311 309 309 309 310 312 314 315 317 318 318 318 317 316 316 317 318 319 319 319 320 321 321 321
319 318 322 323 323 318 315 319 319 313 311 312 313 313 313 313 314 313 313 313 312 311 310 309 309 310 307 307 307 307 308 309 311 314 316 317 317 317 315 314 316 316 317 316 316 316 316 317 317
318 315 318 317 318 314 314 313 313 314 313 313 313 313 312 312 313 313 312 312 311 310 309 309 308 308 306 306 306 305 306 306 307 308 310 312 313 314 314 312 311 311 312 312 311 311 312 313 314
319 320 315 315 314 315 316 315 315 314 314 314 313 312 313 313 313 313 312 312 311 311 309 308 308 307 306 305 304 304 303 303 303 304 305 306 307 308 309 309 310 311 310 310 309 309 309 309 309
318 316 318 319 319 317 314 315 315 315 314 314 312 313 313 312 312 312 312 311 311 310 309 308 307 306 306 305 304 303 303 302 302 301 301 302 303 303 304 304 305 305 304 304 304 304 304 304 305
317 319 318 317 318 316 315 314 312 312 313 313 313 313 313 313 313 312 311 310 310 310 309 308 307 306 305 305 304 304 304 303 302 302 301 301 301 301 301 301 301 301 301 301 300 301 301 301 301
315 316 317 323 322 319 319 316 310 311 312 313 313 312 312 312 313 312 311 310 310 309 309 308 307 306 305 304 303 303 302 302 301 300 300 299 298 298 298 298 298 298 298 298 297 297 298 298 298
Wind_Speed
3 13 10 6 6 6 3 5 3 6 6 4 4 1 3 10 7 4 16 10 18 19 17 14 14 13 12 11 11 10 9 8 7 7 6 5 4 5 6 6 6 8 7 6 6 8 9 10 11
8 10 7 4 7 8 7 8 7 8 8 7 6 2 3 6 8 12 14 13 19 18 16 14 13 14 13 12 11 10 9 8 7 6 4 3 3 3 4 5 5 5 5 4 3 6 7 8 9
10 8 6 4 9 6 4 9 10 8 8 6 4 3 2 5 8 15 13 18 18 16 16 16 13 12 13 12 11 11 10 8 7 4 4 4 4 4 3 5 6 6 5 3 4 3 4 5 6
7 6 4 7 8 3 2 9 13 12 6 3 1 5 4 5 14 9 17 19 18 16 14 14 13 11 11 10 10 10 10 9 6 4 5 5 5 4 4 6 4 4 2 4 5 3 1 3 3
9 5 7 10 3 2 1 10 13 11 9 8 6 5 5 7 8 15 18 18 17 15 14 14 12 11 10 10 9 9 11 9 4 4 5 4 3 3 4 7 4 3 1 2 5 4 2 1 3
7 5 8 10 8 5 6 10 11 7 6 7 5 9 7 11 11 17 18 18 17 15 15 13 12 10 10 11 11 11 12 8 6 6 5 2 2 2 3 5 4 4 3 4 4 6 8 8 7
9 8 12 12 10 8 8 10 10 7 7 5 6 9 6 13 12 15 17 17 17 16 16 14 13 12 10 11 12 13 13 11 9 8 9 8 5 4 5 5 5 5 3 3 3 4 4 4 6
5 6 12 8 11 7 12 11 5 6 8 6 1 4 7 15 16 15 15 15 15 15 14 13 12 11 8 9 11 12 11 12 10 9 11 9 10 9 8 8 8 7 6 6 5 5 5 5 6
2 6 10 12 13 10 14 13 7 4 7 4 5 3 8 21 20 17 15 13 14 13 13 12 12 11 10 8 9 11 12 12 12 11 12 10 10 10 9 11 11 12 10 10 10 9 9 9 9
5 10 15 8 8 12 17 14 12 8 9 6 7 6 14 21 21 18 16 15 15 14 13 12 12 11 10 9 8 9 9 11 11 10 10 12 11 10 10 11 14 14 14 14 14 13 12 12 10
3 8 3 3 3 8 17 12 12 10 10 8 11 13 17 19 18 17 15 14 14 13 12 12 11 11 10 9 8 7 8 9 10 11 11 10 10 10 10 10 11 12 12 13 13 12 13 11 11
6 2 1 3 1 9 16 12 10 10 6 5 8 16 17 16 16 17 16 15 15 13 13 12 12 12 11 9 9 8 9 9 9 9 11 11 10 10 10 10 10 10 10 11 11 12 12 13 13
5 3 3 3 4 7 11 12 12 10 6 5 8 14 15 14 15 15 15 13 13 13 13 12 13 13 12 12 11 10 10 10 10 10 10 12 11 11 11 11 11 11 10 11 12 13 13 13 14
4 2 4 3 7 5 9 7 3 12 8 8 10 13 14 14 16 15 15 15 15 13 13 12 14 14 13 13 13 12 11 12 12 12 12 13 14 12 12 12 12 13 12 13 13 13 14 14 15
3 4 5 6 5 4 7 7 11 6 8 7 9 11 12 12 14 14 14 14 13 13 12 13 14 14 15 14 14 14 14 13 13 13 14 15 15 14 14 13 14 15 14 15 15 15 15 16 16
1 2 8 7 4 3 5 14 12 5 8 11 9 10 10 12 13 12 13 13 12 12 13 13 14 15 16 16 15 15 15 15 15 15 14 15 16 16 16 17 17 17 16 15 16 17 17 17 17
3 8 8 6 3 2 6 8 7 3 3 8 8 8 8 9 11 13 13 13 12 13 14 15 15 16 16 16 17 17 17 16 17 16 16 16 16 16 17 18 19 17 18 18 19 19 19 18 18
10 8 7 7 3 2 5 7 8 4 2 6 6 5 5 7 9 11 12 12 12 14 16 16 15 16 16 16 16 17 17 18 17 17 17 16 15 15 15 17 18 17 19 19 19 22 21 21 20
12 4 7 4 5 2 5 10 10 5 3 6 7 6 7 10 11 11 9 8 11 12 14 15 16 17 16 16 16 17 18 17 17 16 16 15 13 12 13 15 15 16 17 20 19 20 22 23 20
10 8 8 2 4 3 6 11 11 8 9 10 11 10 12 12 12 13 14 12 10 13 14 14 14 14 15 15 14 13 9 11 13 12 12 12 10 10 11 13 15 15 16 18 19 20 21 21 19
11 13 12 7 1 2 6 16 18 12 9 12 12 14 14 13 13 12 13 14 15 14 12 13 13 11 10 11 10 10 9 11 10 9 9 7 9 11 13 14 14 15 16 20 21 22 22 21 19
14 12 8 5 3 5 2 6 11 9 6 7 9 11 9 7 7 7 7 9 9 10 9 9 9 8 7 7 8 9 10 10 6 4 5 10 12 12 13 14 14 13 14 16 19 21 23 20 14
2 4 6 8 4 8 10 6 12 11 8 11 14 2 1 2 4 6 7 7 8 9 9 6 4 3 4 4 5 5 6 6 7 7 8 8 9 11 11 13 13 14 15 16 17 18 19 21 21
11 10 7 2 4 6 14 11 10 10 10 5 2 4 1 1 3 4 5 4 5 7 7 4 2 2 2 3 3 4 6 6 8 8 9 9 9 9 11 12 13 13 15 16 16 16 15 16 17
12 12 3 3 4 6 2 11 15 5 6 3 7 1 3 2 3 4 6 7 7 7 7 5 3 2 3 3 4 4 6 7 8 9 9 10 10 9 9 12 13 13 13 14 14 15 17 19 21
14 11 4 6 6 5 4 7 3 7 7 6 3 4 1 2 4 6 6 7 7 6 6 5 4 3 4 5 5 7 8 8 9 9 10 11 10 10 10 13 14 13 14 15 14 15 16 16 20
11 11 2 1 2 2 6 8 5 6 9 6 5 3 5 7 7 6 7 9 8 8 6 5 5 5 6 7 8 8 9 10 12 13 13 13 14 15 16 17 17 18 18 18 17 18 19 17 19
4 10 4 2 3 6 7 8 7 9 12 10 7 7 7 6 6 5 6 8 8 6 5 5 5 7 7 7 8 10 11 12 13 14 16 16 17 17 18 18 18 19 18 18 18 20 20 20 22
5 8 4 4 3 4 4 5 2 8 7 9 10 7 7 6 5 3 3 8 6 5 6 6 6 7 8 9 10 12 14 15 16 17 17 18 19 18 20 20 20 20 20 19 20 20 20 21 21
12 9 11 3 4 3 3 6 2 4 3 7 9 4 1 1 2 2 5 5 4 4 6 8 8 8 8 9 11 13 14 15 18 19 19 19 21 21 22 23 23 23 23 21 21 21 20 20 20
Wind_Direction
103 146 170 204 239 237 140 153 103 150 155 69 131 207 25 16 6 45 140 132 144 143 149 148 158 155 158 155 153 145 135 128 123 116 113 110 96 77 72 77 96 81 86 80 74 77 74 67 64
185 170 204 256 257 223 140 128 169 164 80 124 131 150 184 85 68 124 131 147 148 145 147 150 159 163 163 168 160 153 144 135 127 119 117 113 105 97 88 83 82 104 85 68 62 89 78 67 63
177 212 244 224 244 287 127 162 143 112 140 168 137 311 53 85 115 140 125 146 148 146 148 158 156 162 169 173 174 167 161 151 138 123 115 110 105 106 119 105 89 91 102 115 122 72 80 68 61
187 207 238 245 213 63 67 156 137 143 151 191 276 146 108 358 136 127 141 146 148 146 145 158 152 158 165 171 184 185 174 162 152 141 132 128 125 115 120 124 124 117 147 133 94 138 62 19 39
230 254 228 232 138 111 168 137 151 163 153 158 194 129 100 121 127 135 143 150 147 145 146 152 151 158 164 169 176 184 183 173 180 164 150 151 138 133 143 167 188 185 158 153 174 174 183 273 330
223 254 223 212 178 146 150 152 159 165 147 122 194 135 125 140 148 146 149 153 152 150 153 165 162 161 167 172 179 181 183 199 199 180 186 179 198 186 169 182 197 211 228 230 221 222 238 252 264
258 217 229 217 155 165 158 165 171 165 163 151 126 147 109 156 152 152 155 157 160 160 163 168 174 174 176 179 182 192 201 206 203 200 208 218 246 247 223 214 215 217 226 228 243 252 256 264 262
260 263 231 228 170 171 156 170 184 176 121 106 184 177 164 160 158 158 160 163 168 168 172 176 178 179 187 196 192 196 205 208 217 215 210 221 227 248 246 237 237 234 240 249 254 262 271 276 275
232 230 215 206 198 143 157 169 180 64 131 176 149 357 103 146 155 161 165 170 176 180 180 185 188 189 188 197 210 204 209 219 227 227 220 225 221 240 239 244 237 251 249 251 257 263 268 272 275
235 219 225 198 209 154 173 179 160 172 155 161 151 113 137 150 160 167 176 179 183 187 191 192 195 199 198 202 212 210 217 220 224 226 228 228 229 236 236 239 254 252 252 253 255 259 264 267 265
163 228 66 100 94 186 172 181 167 191 182 173 169 148 152 161 170 176 182 190 190 192 192 196 200 204 206 212 213 219 217 221 224 224 222 226 231 238 246 243 257 261 258 256 260 259 260 250 252
176 74 360 116 257 181 170 163 176 194 122 97 142 155 163 174 181 186 191 190 194 198 200 202 203 204 209 214 218 221 221 223 225 227 226 227 233 239 239 242 244 245 242 247 246 247 248 250 251
112 93 93 109 144 199 178 174 173 191 125 141 137 157 172 180 188 194 195 195 195 200 203 206 207 210 211 215 220 223 225 228 228 230 229 226 234 240 242 245 246 246 246 246 246 247 249 252 253
23 56 107 113 135 138 183 168 185 191 142 144 163 176 181 189 193 194 199 200 203 206 210 208 213 216 218 222 227 230 232 233 233 231 231 231 232 239 245 249 250 250 248 248 249 249 250 250 254
8 183 149 146 136 127 201 187 209 130 170 160 185 185 189 197 198 207 211 213 211 214 215 217 216 221 223 228 232 234 236 235 237 239 238 235 236 242 246 252 255 257 256 254 253 251 251 250 250
91 264 173 137 163 97 214 199 201 132 194 202 194 191 192 198 213 213 222 226 223 225 224 227 224 222 228 231 235 239 241 240 239 237 240 241 240 242 247 251 254 258 260 259 256 254 252 250 250
273 175 208 135 53 97 214 221 95 139 208 207 208 213 203 211 213 223 227 233 236 239 238 235 232 234 233 236 239 241 242 241 242 241 240 243 244 246 248 254 258 260 259 259 262 261 256 254 249
183 190 222 209 85 164 181 242 107 93 249 229 222 216 229 245 240 240 237 236 241 242 244 245 242 239 240 238 240 243 243 244 243 242 242 244 247 251 255 260 264 266 265 262 258 260 257 252 249
195 202 255 228 38 280 220 260 257 178 281 250 245 244 249 258 262 266 268 258 254 258 259 257 251 245 244 240 238 241 241 244 244 242 245 247 250 253 255 260 265 265 264 264 259 257 256 254 247
163 200 237 239 329 303 241 259 266 255 249 255 264 263 262 267 269 268 271 271 276 280 275 266 263 254 243 239 241 245 256 249 248 249 250 254 254 261 263 263 267 269 271 270 267 266 263 258 254
220 224 209 221 169 242 300 266 259 244 252 252 252 257 263 272 284 290 296 288 287 284 285 276 265 258 244 233 231 241 250 257 260 259 260 260 255 258 267 268 267 275 273 269 267 264 262 260 252
220 213 259 197 228 244 276 269 249 225 204 215 242 243 250 266 293 301 313 305 307 316 314 302 279 257 243 230 234 236 245 258 265 269 261 267 274 273 271 272 273 271 269 267 270 269 267 270 271
215 122 210 223 243 288 230 262 250 254 242 255 247 254 224 217 303 314 318 322 322 332 326 314 301 268 235 230 241 255 260 266 268 266 270 271 276 276 271 275 274 276 272 271 272 271 271 270 265
127 121 112 140 220 251 247 242 254 226 213 246 109 134 158 61 354 3 3 343 346 347 354 356 333 279 262 261 252 259 266 273 275 275 275 274 269 270 276 277 274 274 275 277 278 277 276 276 276
176 170 136 201 202 244 345 226 243 299 248 204 178 260 132 45 49 49 51 39 23 13 6 9 13 308 284 276 273 267 267 269 269 270 270 272 276 281 286 282 280 279 279 277 274 274 275 274 273
190 183 182 208 202 221 111 229 245 238 262 129 203 255 259 180 115 96 71 49 35 23 10 2 358 327 298 285 278 280 281 282 284 287 285 284 284 282 274 274 278 275 276 276 274 272 272 269 266
184 218 52 351 14 313 206 225 257 232 247 202 206 180 154 148 150 115 80 48 32 24 7 346 332 315 299 292 291 292 292 291 288 287 285 285 282 279 277 280 280 278 277 276 272 270 271 270 274
209 166 174 216 218 244 254 263 259 204 228 187 177 171 159 157 158 113 69 39 22 12 352 340 317 302 296 294 293 293 292 291 293 292 290 287 284 282 284 285 281 280 277 277 277 276 275 273 269
168 178 221 181 218 254 270 263 100 278 215 213 160 153 161 173 164 152 51 13 1 359 335 326 322 308 309 301 301 296 298 299 295 291 290 288 287 286 284 284 282 279 278 276 273 270 269 265 268
218 210 199 207 178 250 321 255 4 15 212 180 138 88 144 193 260 267 298 307 327 342 336 328 331 316 318 312 301 303 304 301 296 292 293 291 289 286 285 284 283 283 280 279 273 270 265 263 260